sat.trackr.live / text

‹ back to catalog

KINEIS-5B

NORAD 62085 · 2024-219E

PAYLOAD ACTIVE UNKNOWN

§ Identity

Operator
Country
FR
Launch date
2024-11-25
Launch site
RLLB
Launch vehicle
Mass (kg)
RCS (m²)

External: N2YO · Heavens-Above · Gunter

§ Orbital elements

Epoch: 2026-09-22T21:56:14.632800Z

Period
97.40 min
Inclination
98.0172°
Eccentricity
0.0001268
Mean motion
14.78499391 rev/d
Perigee alt
633.2 km
Apogee alt
635.0 km
Semi-major
7,012.2 km
B*
9.9022e-5
RAAN
69.2576°
Arg perigee
1.1102°
Mean anomaly
359.0111°
Rev number
9,844

§ Raw data

KINEIS-5B1 62085U 24219E   26265.91405825  .00000671  00000+0  99022-4 0  99932 62085  98.0172  69.2576 0001268   1.1102 359.0111 14.78499391 98447

JSON: /api/v1/satellites/62085 · /tle

For live sub-satellite position, see the globe view (requires WebGL).

§ Visibility from observer

Set your observer location to see the next 7 days of passes ≥ 10°. The values pass through the URL so the page stays shareable.

No JS? Fill the form by hand. The geolocation button needs JavaScript.

§ Radio — SatNOGS DB

ModeDescriptionDownlinkUplink
BPSK S-band telemetry 2.264 GHz

1 transmitter · refreshed weekly from db.satnogs.org